ATLAS D DEB, 2327

Orbit data source: Space-Track

ATLAS D DEB, 2327 is space debris in LEO originally from a launch on Thu, 14 Jul 1966 UTC launched from the Air Force Western Test Range (AFWTR). Debris objects in space refer to the collection of defunct objects orbiting the Earth. Examples of debris include non-operational satellites, rocket bodies, and fragments generated from explosions, collisions, or faulty payload assembly.

Loading next visibility...
Identifier
2327, 1966-063B
Orbit
LEO
Country
Flag of USUS
Related business
Manufacturer
Goodyear
Mission
Spacecraft
Bus & Motor
CONTAINER, Unknown motor
Mass
2 kg wet, 2 kg dry
Launch date (UTC)
1966-07-14 (60 years ago)
Launch vehicle
Unknown
Launch site
Air Force Western Test Range (AFWTR)
Object type
Payload
Rocket body
Debris
Shape & HBR
Unknown
Radar Cross Section
Medium (>0.1 m² and <1 m²)

Expand to show TLE details & history
Last TLE update: 9 hours ago

TLE from 9 hours ago
0 ATLAS D DEB
1 02327U 66063B   26070.78134656  .00001384  00000-0  67357-3 0  9997
2 02327 144.1932 142.4536 0029975 175.4241 184.6723 14.05486595 24375
Epoch: 2026-03-11T18:45Z
TLE epoch observation values (Epoch: 2026-03-11T18:45:08.342Z)
Latitude
-0.00004°
Longitude
51.72824°
Altitude
895.567 km
Speed
7.395 km/s
True Right ascension
09h 29m 48s
True Declination
0° 00' 00"
Sunlit
Object was in full shadow at epoch
Visualization orbit readout
Latitude
Unknown
Longitude
Unknown
Altitude
Unknown
Speed
Unknown
Apparent Right ascension
Unknown
Apparent Declination
Unknown
Sunlit
N/A
Visualization observer readout
Local Sidereal Time
08:14:38
Azimuth
Unknown
Elevation
Unknown
Doppler factor
Unknown
Orbital elements
Apogee altitude
899.567 km
Perigee altitude
856.068 km
Semi-major axis
7,255.955 km
Eccentricity
0.003
Inclination
144.1932°
RAAN
142.4536°
Arg. of periapsis
175.4241°
True anomaly
184.64442°
Mean anomaly
184.6723°
Eccentric anomaly
184.65835°
Mean motion
3.51157 °/min
Orbital period
102.52 mins
BSTAR
0.00067357
Loading maneuver chart data...
Computing Atmospheric mass density...
Loading historical data...
Loading historical data...
Loading historical data...
Loading historical data...
Loading historical data...
Loading historical data...
Loading historical data...

Documentation

Showing up to 5 results
|